Skip Page Navigation
NASA JPL Caltech
NASA Logo - Jet Propulsion Laboratory + View the NASA Portal
+ Near-Earth Object (NEO) Program
Search JPL
JPL Home Earth Solar System Stars & Galaxies Technology
JPL Solar System Dynamics
BODIES ORBITS EPHEMERIDES TOOLS PHYSICAL DATA DISCOVERY FAQ SITE MAP
JPL Small-Body Database Browser
Search: [ help ]  
174365 Zibetti (2002 TF371)
Classification: Main-belt Asteroid          SPK-ID: 2174365
Ephemeris | Orbit Diagram | Orbital Elements | Physical Parameters | Discovery Circumstances ]

[ show orbit diagram ]
Orbital Elements at Epoch 2456400.5 (2013-Apr-18.0) TDB
Reference: MPO257786 (heliocentric ecliptic J2000)
 Element Value Uncertainty (1-sigma)   Units 
e 0.0486759 n/a  
a 2.7114427 n/a AU
q 2.5794608 n/a AU
i 11.58158 n/a deg
node 110.10078 n/a deg
peri 332.21093 n/a deg
M 85.47600 n/a deg
tp 2456013.2951550
(2012-Mar-26.79515500)
n/a JED
period 1630.7939561
4.46
n/a
n/a
d
yr
n 0.22075137 n/a deg/d
Q 2.8434246 n/a AU
  Orbit Determination Parameters
   # obs. used (total)      68  
   first obs. used      2002-??-??  
   last obs. used      2013-03-19  
   # oppositions      8  
   planetary ephem.      DE403  
   condition code      0  
   fit RMS      0.37  
   data source      MPC:mpu  
   producer      MPCLINUX  

Additional Information
 T_jup = 3.332 

Ephemeris | Orbit Diagram | Orbital Elements | Physical Parameters | Discovery Circumstances ]

Physical Parameter Table
Parameter Symbol Value Units Sigma Reference Notes
absolute magnitude H 16.5 mag n/a MPO257786  

174365 Zibetti           Discovered 2002 Oct. 10 by the Sloan Digital Sky Survey at Apache Point.
Stefano Zibetti (b. 1976) is an Italian astronomer and a contributor to the Sloan Digital Sky Survey, known for his contributions to the statistical study of the extremely faint diffuse light around galaxies and for the galaxies identified via quasar absorption lines.
NOTE: some special characters may not display properly (any characters within {} are an attempt to place the proper accent above a character)
Reference: 20130127/MPCPages.arcLast Updated: 2013-01-31
Ephemeris | Orbit Diagram | Orbital Elements | Physical Parameters | Discovery Circumstances ]
ABOUT SSD CREDITS/AWARDS PRIVACY/COPYRIGHT GLOSSARY LINKS
FirstGov 2013-May-19 02:24 UT
(server date/time)  
NASA Home Page
Site Manager:   Donald K. Yeomans
Webmaster  Alan B. Chamberlin